Location: Easthampton
(42.2676°N, 72.6690°W)
Time: 05:39:45
(UTC+00:00)

N. Korean satellite - Pass Details

Date: 06 December 2022
Orbit: 407 x 444 km, 97.3° (Epoch: 28 January)

Event Time Altitude Azimuth Distance (km) Brightness Sun altitude
Rises 22:02:20 0° 196° (SSW) 2,450 10.8 -8.1°
Reaches altitude 10° 22:04:39 10° 212° (SSW) 1,593 10.1 -8.5°
Maximum altitude 22:07:24 22° 265° (W) 1,048 9.3 -9.0°
Drops below altitude 10° 22:10:12 10° 319° (NW) 1,623 9.5 -9.4°
Sets 22:12:36 0° 334° (NNW) 2,510 10.2 -9.8°
